Weather History for Poplar Bluff, MO

Change the Weather History Date:

Saturday, March 15, 2014

  Actual Average Record
Temperature  
Mean Temperature 51 °F -  
Max Temperature 69 °F 59 °F 80 °F (1945)
Min Temperature 34 °F 35 °F 19 °F (1993)
Degree Days  
Heating Degree Days 14    
Growing Degree Days 1 (Base 50)    
Moisture  
Dew Point 37 °F    
Average Humidity 78    
Maximum Humidity 93    
Minimum Humidity 35    
Precipitation  
Precipitation 0.00 in - - ()
Sea Level Pressure  
Sea Level Pressure 30.01 in    
Wind  
Wind Speed 2 mph (SE)    
Max Wind Speed 12 mph    
Max Gust Speed -    
Visibility 4 miles    
Events Fog    
Averages and records for this station are not official NWS values.
T = Trace of Precipitation, MM = Missing Value Source: NWS Daily Summary

Daily Weather History Graph

Daily Weather History Graph

Search for Another Location

Airport:

Trip Planner

Search our weather history database for the weather conditions in past years. The results will help you decide how hot, cold, wet, or windy it might be!

Date:

Astronomy

Mar. 15, 2014 Rise Set
Actual Time 7:12 AM CDT 7:08 PM CDT
Civil Twilight 6:46 AM CDT 7:34 PM CDT
Nautical Twilight 6:16 AM CDT 8:04 PM CDT
Astronomical Twilight 5:46 AM CDT 8:34 PM CDT
Moon 6:28 PM CDT (3/15) 6:23 AM CDT (3/15)
Length of Visible Light 12h 48m
Length of Day
11h 56m
Waxing Gibbous, 99% of the Moon is Illuminated
Mar 15
Waxing Gibbous
Mar 16
Full
Mar 23
Last Quarter
Mar 30
New
Apr 7
First Quarter

Hourly Weather History & Observations

Time (CDT) Temp. Windchill Dew Point Humidity Pressure Visibility Wind Dir Wind Speed Gust Speed Precip Events Conditions
12:53 AM 48.9 °F - 42.1 °F 77% 30.01 in 10.0 mi WSW 4.6 mph - N/A   Clear
1:53 AM 45.0 °F - 39.0 °F 80% 30.03 in 10.0 mi Calm Calm - N/A   Clear
2:50 AM 39.2 °F - 37.4 °F 93% 30.02 in 1.5 mi Calm Calm - N/A   Clear
2:53 AM 39.9 °F - 36.0 °F 86% 30.04 in 0.5 mi Calm Calm - N/A Fog Fog
3:01 AM 39.9 °F - 36.0 °F 86% 30.02 in 0.2 mi Calm Calm - N/A Fog Fog
3:07 AM 39.0 °F - 35.1 °F 86% 30.02 in 0.5 mi Calm Calm - N/A Fog Fog
3:25 AM 39.0 °F 36.8 °F 36.0 °F 89% 30.02 in 0.2 mi SSW 3.5 mph - N/A Fog Fog
3:53 AM 39.0 °F - 35.1 °F 86% 30.03 in 0.2 mi Calm Calm - N/A Fog Fog
4:04 AM 39.0 °F - 35.1 °F 86% 30.02 in 0.2 mi Calm Calm - N/A Fog Fog
4:12 AM 37.9 °F - 35.1 °F 89% 30.02 in 1.0 mi Calm Calm - N/A   Mist
4:24 AM 37.0 °F - 34.0 °F 89% 30.02 in 0.2 mi Calm Calm - N/A Fog Fog
4:33 AM 37.0 °F 34.5 °F 34.0 °F 89% 30.03 in 1.0 mi NW 3.5 mph - N/A   Mist
4:35 AM 37.0 °F 34.5 °F 34.0 °F 89% 30.03 in 2.0 mi NW 3.5 mph - N/A   Scattered Clouds
4:42 AM 37.0 °F 34.5 °F 33.1 °F 86% 30.02 in 6.0 mi NW 3.5 mph - N/A   Partly Cloudy
4:53 AM 37.0 °F - 33.1 °F 86% 30.04 in 6.0 mi Calm Calm - N/A   Scattered Clouds
5:01 AM 37.0 °F 34.5 °F 33.1 °F 86% 30.03 in 3.0 mi NW 3.5 mph - N/A   Mostly Cloudy
5:03 AM 37.0 °F - 33.1 °F 86% 30.03 in 1.2 mi Calm Calm - N/A   Mostly Cloudy
5:11 AM 37.0 °F - 33.1 °F 86% 30.03 in 0.5 mi Calm Calm - N/A Fog Fog
5:16 AM 37.0 °F - 33.1 °F 86% 30.03 in 2.5 mi Calm Calm - N/A   Overcast
5:29 AM 36.0 °F - 32.0 °F 86% 30.03 in 1.5 mi Calm Calm - N/A   Mostly Cloudy
5:32 AM 36.0 °F - 32.0 °F 86% 30.03 in 3.0 mi Calm Calm - N/A   Mostly Cloudy
5:48 AM 35.6 °F - 33.8 °F 93% 30.03 in 7.0 mi Calm Calm - N/A   Scattered Clouds
5:53 AM 36.0 °F 33.3 °F 32.0 °F 86% 30.04 in 7.0 mi NNW 3.5 mph - N/A   Scattered Clouds
6:00 AM 36.0 °F 32.1 °F 32.0 °F 86% 30.03 in 1.5 mi North 4.6 mph - N/A   Mostly Cloudy
6:09 AM 35.1 °F 31.0 °F 30.9 °F 85% 30.03 in 0.8 mi North 4.6 mph - N/A   Mist
6:23 AM 35.1 °F 32.2 °F 30.9 °F 85% 30.03 in 1.8 mi North 3.5 mph - N/A   Mostly Cloudy
6:40 AM 35.1 °F - 30.9 °F 85% 30.03 in 0.8 mi Calm Calm - N/A   Mist
6:53 AM 34.0 °F - 30.9 °F 89% 30.04 in 0.5 mi Calm Calm - N/A Fog Fog
7:07 AM 34.0 °F 31.0 °F 30.9 °F 89% 30.04 in 1.2 mi North 3.5 mph - N/A   Scattered Clouds
7:09 AM 34.0 °F 29.8 °F 30.0 °F 85% 30.04 in 3.0 mi North 4.6 mph - N/A   Scattered Clouds
7:53 AM 35.1 °F - 32.0 °F 89% 30.06 in 8.0 mi Calm Calm - N/A   Clear
8:32 AM 39.0 °F 35.7 °F 35.1 °F 86% 30.06 in 2.0 mi South 4.6 mph - N/A   Partly Cloudy
8:34 AM 39.0 °F 35.7 °F 35.1 °F 86% 30.06 in 1.0 mi South 4.6 mph - N/A   Mist
8:37 AM 39.0 °F 36.8 °F 35.1 °F 86% 30.06 in 0.2 mi SSE 3.5 mph - N/A Fog Fog
8:53 AM 39.0 °F - 36.0 °F 89% 30.07 in 0.2 mi Calm Calm - N/A Fog Fog
9:34 AM 41.0 °F - 37.0 °F 86% 30.07 in 0.5 mi Calm Calm - N/A Fog Fog
9:49 AM 44.6 °F - 39.2 °F 81% 30.06 in 1.8 mi Calm Calm - N/A   Mostly Cloudy
9:53 AM 44.1 °F - 39.9 °F 85% 30.08 in 4.0 mi Calm Calm - N/A   Mostly Cloudy
10:02 AM 45.0 °F - 41.0 °F 86% 30.07 in 8.0 mi Calm Calm - N/A   Scattered Clouds
10:53 AM 53.1 °F - 44.1 °F 71% 30.07 in 10.0 mi SE 8.1 mph - N/A   Clear
11:53 AM 60.1 °F - 39.9 °F 47% 30.06 in 10.0 mi SE 9.2 mph - N/A   Clear
12:53 PM 64.0 °F - 36.0 °F 35% 30.04 in 10.0 mi SSE 11.5 mph - N/A   Clear
1:53 PM 66.0 °F - 39.0 °F 37% 30.00 in 10.0 mi SE 10.4 mph - N/A   Clear
2:53 PM 68.0 °F - 39.0 °F 35% 29.96 in 10.0 mi ESE 10.4 mph - N/A   Clear
3:53 PM 68.0 °F - 39.9 °F 36% 29.94 in 10.0 mi SE 11.5 mph - N/A   Mostly Cloudy
4:53 PM 68.0 °F - 45.0 °F 43% 29.92 in 10.0 mi SSE 11.5 mph - N/A   Clear
5:53 PM 66.0 °F - 46.0 °F 48% 29.91 in 10.0 mi South 6.9 mph - N/A   Clear
6:53 PM 63.0 °F - 46.9 °F 56% 29.91 in 10.0 mi SE 5.8 mph - N/A   Overcast
7:53 PM 59.0 °F - 46.9 °F 64% 29.91 in 10.0 mi SE 5.8 mph - N/A   Overcast
8:53 PM 59.0 °F - 46.9 °F 64% 29.90 in 10.0 mi SE 3.5 mph - N/A   Mostly Cloudy
9:53 PM 57.9 °F - 46.9 °F 67% 29.89 in 10.0 mi Calm Calm - N/A   Overcast
10:53 PM 55.0 °F - 48.0 °F 77% 29.88 in 10.0 mi North 4.6 mph - N/A   Overcast
11:53 PM 55.9 °F - 48.0 °F 75% 29.87 in 10.0 mi Calm Calm - N/A   Overcast